KANOPUS-V 5 (43876 NORAD) Tracking and Keplerian Element Data

This shows tracking and keplerian element data for the satellite.

Feedback or suggestion? Click here.




ElementValue
Catalog43876
NameKANOPUS-V 5
Epoch Orbit33696
Epoch Day35.19427014
Epoch Year2025
RAAN304.9849
Inclination97.3863
Eccentricity0.0001851
Argument of Perigee91.5048
Mean Anonmoly268.64
Mean Motion15.22024302
Decay Rate6.051E-05
L11 43876U 18111A 25035.19427014 .00006051 00000+0 26783-3 0 9993
L22 43876 97.3863 304.9849 0001851 91.5048 268.6400 15.22024302336969



Live tracking and technical data element details for KANOPUS-V 5 (NORAD 43876). KANOPUS-V 5 can be tracked NOW for your location showing map with azimuth and elevation plus other details from your city location.







IsCatalogInMostPopularTable: catalog: 43876, numindb: 307
Update: records affected: 1



GetName: 43876 KANOPUS-V 5

Hit Count: updated at: Thu, 22 May 2025 02:53:18 GMT